GW5938 Weather Reports


time (UTC)temp
F
wind
direction
speed
knots
gust
knots
rain 1hr
in
rain 24hr
in
rain mn
in
humidity
%
barometer
mb
20260906232518 80 220 6.1 13.0 0.00 0.00 0.00 22 1013.3
20260906232018 80 250 6.1 13.0 0.00 0.00 0.00 21 1013.3
20260906231547 80 213 6.1 11.3 0.00 0.00 0.00 20 1013.4
20260906231022 80 194 7.0 12.2 0.00 0.00 0.00 20 1013.3
20260906230513 80 210 5.2 12.2 0.00 0.00 0.00 20 1013.2
20260906230027 80 267 7.8 13.9 0.00 0.00 0.00 19 1013.2
20260906225514 81 211 7.8 17.4 0.00 0.00 0.00 20 1013.3
20260906225015 81 194 9.6 15.6 0.00 0.00 0.00 19 1013.3
20260906224528 81 235 7.8 13.9 0.00 0.00 0.00 20 1013.3
20260906224014 81 240 7.8 13.9 0.00 0.00 0.00 19 1013.3
20260906223516 82 240 8.7 19.1 0.00 0.00 0.00 19 1013.4
20260906223032 81 232 6.1 19.1 0.00 0.00 0.00 20 1013.4
20260906222516 82 238 10.4 15.6 0.00 0.00 0.00 19 1013.4
20260906222018 82 240 9.6 15.6 0.00 0.00 0.00 18 1013.5
20260906221537 82 234 7.0 16.5 0.00 0.00 0.00 20 1013.6
20260906221016 83 259 8.7 20.0 0.00 0.00 0.00 19 1013.6
20260906220521 83 261 12.2 20.0 0.00 0.00 0.00 19 1013.6
20260906220035 83 221 9.6 19.1 0.00 0.00 0.00 19 1013.6
20260906215516 84 264 8.7 19.1 0.00 0.00 0.00 21 1013.4
20260906215010 84 270 10.4 14.8 0.00 0.00 0.00 20 1013.7
20260906214538 84 226 8.7 18.2 0.00 0.00 0.00 19 1013.4
20260906214014 83 265 8.7 20.0 0.00 0.00 0.00 21 1013.5
20260906213520 84 205 11.3 21.7 0.00 0.00 0.00 21 1013.7
20260906213032 84 221 11.3 21.7 0.00 0.00 0.00 21 1013.8
20260906212518 84 194 9.6 20.0 0.00 0.00 0.00 21 1013.9
20260906212016 84 238 10.4 15.6 0.00 0.00 0.00 20 1014.1
20260906211534 84 219 10.4 15.6 0.00 0.00 0.00 21 1014.1
20260906211019 84 213 6.1 14.8 0.00 0.00 0.00 22 1014.1
20260906210521 84 253 6.1 14.8 0.00 0.00 0.00 23 1014.2
20260906210037 84 215 7.0 12.2 0.00 0.00 0.00 23 1014.3
20260906205518 84 189 7.0 13.0 0.00 0.00 0.00 22 1014.4
20260906205021 84 259 5.2 17.4 0.00 0.00 0.00 22 1014.6
20260906204534 83 219 7.0 17.4 0.00 0.00 0.00 23 1014.6
20260906204012 84 216 10.4 17.4 0.00 0.00 0.00 22 1014.7
20260906203516 84 227 9.6 19.1 0.00 0.00 0.00 19 1014.5
20260906203032 84 161 9.6 19.1 0.00 0.00 0.00 20 1014.4
20260906202515 83 192 9.6 17.4 0.00 0.00 0.00 19 1014.5
20260906202016 83 211 8.7 14.8 0.00 0.00 0.00 20 1014.5
20260906201600 83 224 7.8 13.9 0.00 0.00 0.00 22 1014.5
20260906201016 82 223 4.3 9.6 0.00 0.00 0.00 23 1014.6
20260906200518 83 281 3.5 11.3 0.00 0.00 0.00 26 1014.6
20260906200034 82 229 6.1 13.0 0.00 0.00 0.00 26 1014.8
20260906195522 83 155 3.5 13.0 0.00 0.00 0.00 26 1014.8
20260906195021 83 221 3.5 8.7 0.00 0.00 0.00 27 1014.9
20260906194534 82 261 2.6 6.1 0.00 0.00 0.00 29 1014.9
20260906194018 82 227 2.6 7.8 0.00 0.00 0.00 27 1015.1
20260906193518 82 269 2.6 12.2 0.00 0.00 0.00 30 1015.1
20260906193034 81 221 6.1 12.2 0.00 0.00 0.00 29 1015.2
20260906192515 81 271 5.2 11.3 0.00 0.00 0.00 30 1015.2
20260906192017 81 242 4.3 11.3 0.00 0.00 0.00 27 1015.3
20260906191534 81 254 5.2 9.6 0.00 0.00 0.00 29 1015.4
20260906191015 80 254 3.5 9.6 0.00 0.00 0.00 31 1015.5
20260906190036 80 258 6.1 10.4 0.00 0.00 0.00 29 1015.9
20260906185521 80 315 7.0 10.4 0.00 0.00 0.00 31 1015.9
20260906185018 79 262 3.5 9.6 0.00 0.00 0.00 33 1016.0
20260906184537 79 248 5.2 8.7 0.00 0.00 0.00 34 1016.1
20260906184017 79 246 6.1 8.7 0.00 0.00 0.00 35 1016.1
20260906183518 79 261 4.3 9.6 0.00 0.00 0.00 35 1016.1
20260906183037 79 276 4.3 9.6 0.00 0.00 0.00 35 1016.2
20260906182515 78 233 2.6 7.8 0.00 0.00 0.00 37 1016.2
20260906182014 78 264 2.6 7.0 0.00 0.00 0.00 36 1016.2
20260906181541 78 264 4.3 7.0 0.00 0.00 0.00 35 1016.3
20260906181017 77 181 1.7 5.2 0.00 0.00 0.00 39 1016.4
20260906180518 76 290 0.9 3.5 0.00 0.00 0.00 36 1016.6
20260906180038 75 257 1.7 3.5 0.00 0.00 0.00 39 1016.6
20260906175519 74 294 1.7 3.5 0.00 0.00 0.00 39 1016.7
20260906175018 74 287 2.6 5.2 0.00 0.00 0.00 40 1016.9
20260906174537 73 348 0.9 5.2 0.00 0.00 0.00 39 1017.0
20260906174018 73 288 0.0 2.6 0.00 0.00 0.00 39 1017.1
20260906173517 73 265 1.7 2.6 0.00 0.00 0.00 43 1017.3
20260906173037 72 234 0.0 2.6 0.00 0.00 0.00 43 1017.3
20260906172516 71 24 0.9 2.6 0.00 0.00 0.00 43 1017.4
20260906172020 71 289 0.9 2.6 0.00 0.00 0.00 42 1017.5
20260906171535 70 237 0.0 2.6 0.00 0.00 0.00 42 1017.5
20260906171015 70 275 0.9 2.6 0.00 0.00 0.00 43 1017.6
20260906170517 69 309 0.9 3.5 0.00 0.00 0.00 45 1017.5
20260906170009 69 350 1.7 3.5 0.00 0.00 0.00 44 1017.5
20260906165506 69 234 0.9 2.6 0.00 0.00 0.00 46 1017.6
20260906165006 69 261 0.9 3.5 0.00 0.00 0.00 45 1017.7
20260906164520 68 279 0.9 4.3 0.00 0.00 0.00 45 1017.6
20260906164009 68 302 1.7 4.3 0.00 0.00 0.00 46 1017.7
20260906163511 68 289 1.7 2.6 0.00 0.00 0.00 47 1017.6
20260906163041 67 263 0.9 2.6 0.00 0.00 0.00 49 1017.7
20260906162523 66 44 0.9 2.6 0.00 0.00 0.00 48 1017.7
20260906162015 66 346 0.9 2.6 0.00 0.00 0.00 50 1017.7
20260906161532 65 218 0.9 3.5 0.00 0.00 0.00 50 1017.8
20260906161002 64 188 0.9 3.5 0.00 0.00 0.00 49 1017.8
20260906160503 64 190 0.9 2.6 0.00 0.00 0.00 51 1017.9
20260906160008 64 183 0.9 2.6 0.00 0.00 0.00 51 1017.9
20260906155503 64 150 0.0 2.6 0.00 0.00 0.00 51 1017.9
20260906155004 63 167 0.0 2.6 0.00 0.00 0.00 50 1018.0
20260906154515 63 167 0.9 2.6 0.00 0.00 0.00 53 1018.1
20260906154005 63 123 0.0 1.7 0.00 0.00 0.00 52 1018.1
20260906153510 62 42 0.0 2.6 0.00 0.00 0.00 54 1018.1
20260906153023 61 349 0.9 2.6 0.00 0.00 0.00 55 1018.1
20260906152509 62 18 1.7 2.6 0.00 0.00 0.00 55 1018.1
20260906152013 61 94 0.0 1.7 0.00 0.00 0.00 55 1018.1
20260906151529 61 134 0.9 1.7 0.00 0.00 0.00 55 1018.1
20260906151021 60 133 0.9 1.7 0.00 0.00 0.00 56 1018.1
20260906150512 59 24 0.0 1.7 0.00 0.00 0.00 56 1018.2
20260906150010 59 84 0.9 1.7 0.00 0.00 0.00 57 1018.2
20260906145503 59 99 0.0 1.7 0.00 0.00 0.00 58 1018.2
20260906145004 58 61 0.9 1.7 0.00 0.00 0.00 59 1018.2
20260906144512 57 22 0.9 3.5 0.00 0.00 0.00 61 1018.2
20260906144005 57 48 0.9 3.5 0.00 0.00 0.00 62 1018.2
20260906143507 56 55 2.6 3.5 0.00 0.00 0.00 64 1018.1
20260906143019 55 57 1.7 3.5 0.00 0.00 0.00 66 1018.2
20260906142507 54 24 0.9 3.5 0.00 0.00 0.00 67 1018.2
20260906142014 54 24 0.9 3.5 0.00 0.00 0.00 67 1018.2
20260906141524 54 49 2.6 3.5 0.00 0.00 0.00 67 1018.2
20260906141012 54 348 0.0 1.7 0.00 0.00 0.00 68 1018.2
20260906140517 54 21 0.0 0.0 0.00 0.00 0.00 68 1018.2
20260906140037 53 128 0.0 0.0 0.00 0.00 0.00 70 1018.1
20260906135518 52 128 0.0 0.0 0.00 0.00 0.00 72 1018.0
20260906135015 51 128 0.0 0.0 0.00 0.00 0.00 71 1017.9
20260906134510 50 128 0.0 0.0 0.00 0.00 0.00 74 1017.9
20260906134003 50 128 0.0 0.0 0.00 0.00 0.00 74 1017.8
20260906133510 50 128 0.0 0.0 0.00 0.00 0.00 73 1017.7
20260906133017 50 128 0.0 0.0 0.00 0.00 0.00 74 1017.7
20260906132507 50 163 0.0 0.0 0.00 0.00 0.00 73 1017.7
20260906132016 50 162 0.0 0.0 0.00 0.00 0.00 72 1017.7
20260906131523 50 162 0.0 0.0 0.00 0.00 0.00 72 1017.5
20260906131011 50 162 0.0 0.0 0.00 0.00 0.00 73 1017.5
20260906130513 50 162 0.0 0.0 0.00 0.00 0.00 74 1017.5
20260906130030 51 163 0.0 1.7 0.00 0.00 0.00 70 1017.5
20260906125524 51 162 0.0 1.7 0.00 0.00 0.00 68 1017.5
20260906125013 51 162 0.9 2.6 0.00 0.00 0.00 67 1017.4
20260906124532 52 158 0.9 3.5 0.00 0.00 0.00 67 1017.4
20260906124014 52 155 0.9 4.3 0.00 0.00 0.00 67 1017.4
20260906123508 52 150 1.7 4.3 0.00 0.00 0.00 66 1017.4
20260906123030 52 162 1.7 3.5 0.00 0.00 0.00 66 1017.4
20260906122509 52 169 1.7 3.5 0.00 0.00 0.00 66 1017.2
20260906122006 52 150 1.7 3.5 0.00 0.00 0.00 66 1017.2
20260906121520 52 159 1.7 3.5 0.00 0.00 0.00 66 1017.3
20260906121010 52 148 0.9 2.6 0.00 0.00 0.00 66 1017.3
20260906120512 52 148 0.9 2.6 0.00 0.00 0.00 66 1017.3
20260906120028 52 162 0.9 2.6 0.00 0.00 0.00 66 1017.3
20260906115517 52 165 0.9 2.6 0.00 0.00 0.00 66 1017.3
20260906115016 52 151 0.0 1.7 0.00 0.00 0.00 66 1017.2
20260906114536 52 151 0.9 1.7 0.00 0.00 0.00 66 1017.2
20260906114018 52 151 0.0 1.7 0.00 0.00 0.00 66 1017.2
20260906113514 53 151 0.0 1.7 0.00 0.00 0.00 65 1017.2
20260906113032 53 155 0.9 2.6 0.00 0.00 0.00 65 1017.1
20260906112521 53 144 0.9 2.6 0.00 0.00 0.00 65 1017.1
20260906112006 54 150 0.9 2.6 0.00 0.00 0.00 64 1017.2
20260906111514 54 153 0.0 1.7 0.00 0.00 0.00 63 1017.2
20260906111010 55 168 0.9 3.5 0.00 0.00 0.00 62 1017.2
20260906110510 55 163 0.9 3.5 0.00 0.00 0.00 61 1017.2
20260906110004 56 159 1.7 4.3 0.00 0.00 0.00 61 1017.1
20260906105502 56 180 2.6 4.3 0.00 0.00 0.00 61 1017.2
20260906105004 56 190 1.7 6.1 0.00 0.00 0.00 60 1017.1
20260906104505 56 205 1.7 6.1 0.00 0.00 0.00 60 1017.1
20260906104003 56 190 3.5 6.1 0.00 0.00 0.00 60 1017.0
20260906103506 56 200 2.6 7.0 0.00 0.00 0.00 60 1017.0
20260906103008 56 180 1.7 7.0 0.00 0.00 0.00 60 1017.0
20260906102503 56 201 2.6 5.2 0.00 0.00 0.00 59 1017.0
20260906102007 57 173 2.6 5.2 0.00 0.00 0.00 59 1016.9
20260906101514 57 160 2.6 5.2 0.00 0.00 0.00 59 1016.8
20260906101006 57 155 1.7 5.2 0.00 0.00 0.00 58 1016.8
20260906100515 57 207 3.5 7.0 0.00 0.00 0.00 58 1016.7
20260906100019 57 185 3.5 7.0 0.00 0.00 0.00 58 1016.6
20260906095512 57 211 2.6 6.1 0.00 0.00 0.00 58 1016.6
20260906095002 57 165 1.7 7.0 0.00 0.00 0.00 58 1016.5
20260906094504 57 201 3.5 9.6 0.00 0.00 0.00 58 1016.3
20260906094003 58 260 5.2 9.6 0.00 0.00 0.00 57 1016.1
20260906093503 58 211 3.5 10.4 0.00 0.00 0.00 57 1015.9
20260906093011 58 244 4.3 10.4 0.00 0.00 0.00 56 1015.9
20260906092504 58 249 6.1 9.6 0.00 0.00 0.00 55 1015.8
20260906092008 59 248 3.5 8.7 0.00 0.00 0.00 51 1015.7
20260906091509 59 247 4.3 7.8 0.00 0.00 0.00 48 1015.6
20260906091008 59 236 2.6 6.1 0.00 0.00 0.00 45 1015.5
20260906090508 59 249 1.7 2.6 0.00 0.00 0.00 44 1015.4
20260906090020 60 249 1.7 7.0 0.00 0.00 0.00 41 1015.4
20260906085509 62 263 1.7 10.4 0.00 0.00 0.00 39 1015.3
20260906085013 64 273 6.1 10.4 0.00 0.00 0.00 35 1015.2
20260906084527 65 178 4.3 11.3 0.00 0.00 0.00 34 1014.9
20260906084003 66 253 5.2 11.3 0.00 0.00 0.00 34 1014.9
20260906083503 66 157 4.3 15.6 0.00 0.00 0.00 33 1014.9
20260906083004 68 186 4.3 16.5 0.00 0.00 0.00 31 1014.9
20260906082504 66 176 7.8 16.5 0.00 0.00 0.00 32 1014.9
20260906082016 67 204 3.5 13.9 0.00 0.00 0.00 32 1014.9
20260906081507 68 229 3.5 13.9 0.00 0.00 0.00 31 1014.9
20260906081004 67 196 7.8 13.9 0.00 0.00 0.00 33 1014.9
20260906080516 65 275 5.2 8.7 0.00 0.00 0.00 33 1015.1
20260906080015 66 244 4.3 9.6 0.00 0.00 0.00 33 1015.1
20260906075509 66 216 6.1 9.6 0.00 0.00 0.00 32 1014.9
20260906075017 67 207 4.3 9.6 0.00 0.00 0.00 32 1014.9
20260906074521 66 185 5.2 9.6 0.00 0.00 0.00 32 1014.9
20260906074012 66 184 5.2 8.7 0.00 0.00 0.00 33 1014.9
20260906073513 65 157 5.2 8.7 0.00 0.00 0.00 34 1014.9
20260906073046 63 169 4.3 7.8 0.00 0.00 0.00 37 1014.8
20260906072514 59 156 1.7 6.1 0.00 0.00 0.00 41 1014.8
20260906072015 58 30 0.0 1.7 0.00 0.00 0.00 44 1014.9
20260906071530 59 30 0.9 1.7 0.00 0.00 0.00 45 1014.9
20260906071019 59 237 0.0 1.7 0.00 0.00 0.00 43 1015.0
20260906070519 59 237 0.0 1.7 0.00 0.00 0.00 43 1014.9
20260906070016 58 224 0.9 2.6 0.00 0.00 0.00 42 1015.0
20260906065508 58 290 0.9 2.6 0.00 0.00 0.00 45 1015.1
20260906065020 58 17 0.9 2.6 0.00 0.00 0.00 46 1015.1
20260906064521 58 333 0.0 2.6 0.00 0.00 0.00 44 1015.2
20260906064010 58 352 0.9 2.6 0.00 0.00 0.00 43 1015.2
20260906063512 58 340 1.7 2.6 0.00 0.00 0.00 46 1015.2
20260906063026 59 360 0.0 2.6 0.00 0.00 0.00 42 1015.2
20260906062515 60 63 0.0 3.5 0.00 0.00 0.00 43 1015.3
20260906062014 61 78 1.7 4.3 0.00 0.00 0.00 39 1015.4
20260906061534 62 82 1.7 5.2 0.00 0.00 0.00 39 1015.4
20260906061015 62 65 1.7 6.1 0.00 0.00 0.00 35 1015.5
20260906060519 62 92 2.6 6.1 0.00 0.00 0.00 35 1015.6
20260906060033 62 65 2.6 6.1 0.00 0.00 0.00 35 1015.6
20260906055519 62 115 3.5 6.1 0.00 0.00 0.00 34 1015.7
20260906055007 62 115 2.6 5.2 0.00 0.00 0.00 35 1015.7
20260906054520 63 69 1.7 6.1 0.00 0.00 0.00 35 1015.8
20260906054008 63 75 2.6 6.1 0.00 0.00 0.00 34 1015.8
20260906053507 63 95 2.6 5.2 0.00 0.00 0.00 34 1016.0
20260906053033 63 85 1.7 7.0 0.00 0.00 0.00 34 1016.1
20260906052511 63 94 3.5 7.0 0.00 0.00 0.00 35 1016.1
20260906052014 63 61 4.3 7.0 0.00 0.00 0.00 36 1016.2
20260906051527 62 107 4.3 7.0 0.00 0.00 0.00 37 1016.3
20260906051015 60 105 1.7 5.2 0.00 0.00 0.00 42 1016.3
20260906050516 61 76 0.9 1.7 0.00 0.00 0.00 44 1016.4
20260906050042 61 42 0.9 0.9 0.00 0.00 0.00 46 1016.4
20260906045515 62 42 0.9 1.7 0.00 0.00 0.00 44 1016.4
20260906045014 63 42 0.9 2.6 0.00 0.00 0.00 43 1016.4
20260906044535 64 64 0.0 2.6 0.00 0.00 0.00 40 1016.5
20260906044017 65 57 0.9 2.6 0.00 0.00 0.00 38 1016.5
20260906043508 66 61 0.9 3.5 0.00 0.00 0.00 37 1016.6
20260906043024 66 59 1.7 4.3 0.00 0.00 0.00 37 1016.6
20260906042512 67 59 1.7 5.2 0.00 0.00 0.00 36 1016.6
20260906042010 68 75 1.7 8.7 0.00 0.00 0.00 36 1016.7
20260906041527 68 76 2.6 8.7 0.00 0.00 0.00 36 1016.7
20260906041013 67 78 6.1 8.7 0.00 0.00 0.00 37 1016.7
20260906040516 66 110 4.3 7.0 0.00 0.00 0.00 38 1016.6
20260906040030 66 82 1.7 5.2 0.00 0.00 0.00 38 1016.6
20260906035515 65 142 2.6 5.2 0.00 0.00 0.00 40 1016.7
20260906035014 64 129 0.9 3.5 0.00 0.00 0.00 40 1016.8
20260906034535 64 140 1.7 2.6 0.00 0.00 0.00 41 1016.8
20260906034016 65 132 0.9 2.6 0.00 0.00 0.00 41 1016.8
20260906033515 65 123 0.9 2.6 0.00 0.00 0.00 41 1016.8
20260906033038 65 105 1.7 3.5 0.00 0.00 0.00 40 1016.9
20260906032510 66 128 0.9 3.5 0.00 0.00 0.00 39 1016.9
20260906032012 65 145 1.7 3.5 0.00 0.00 0.00 40 1017.0
20260906031523 65 96 0.9 1.7 0.00 0.00 0.00 41 1016.9
20260906031015 64 131 0.9 1.7 0.00 0.00 0.00 43 1016.9
20260906030515 65 102 0.0 0.0 0.00 0.00 0.00 43 1016.8
20260906030028 66 102 0.0 1.7 0.00 0.00 0.00 41 1016.7
20260906025516 66 102 0.0 1.7 0.00 0.00 0.00 41 1016.7
20260906025017 67 102 0.9 1.7 0.00 0.00 0.00 41 1016.7
20260906024530 67 102 0.0 1.7 0.00 0.00 0.00 40 1016.7
20260906024016 68 102 0.0 1.7 0.00 0.00 0.00 38 1016.6
20260906023516 69 102 0.9 1.7 0.00 0.00 0.00 37 1016.6
20260906023037 69 93 0.9 1.7 0.00 0.00 0.00 37 1016.5
20260906022520 69 123 0.0 0.9 0.00 0.00 0.00 37 1016.4
20260906022017 70 130 0.0 0.9 0.00 0.00 0.00 36 1016.4
20260906021536 71 130 0.0 0.9 0.00 0.00 0.00 34 1016.4
20260906021012 72 130 0.9 1.7 0.00 0.00 0.00 32 1016.4
20260906020515 73 121 0.9 1.7 0.00 0.00 0.00 31 1016.4
20260906020027 73 123 0.9 1.7 0.00 0.00 0.00 30 1016.4
20260906015514 72 135 0.0 1.7 0.00 0.00 0.00 31 1016.4
20260906015014 73 194 0.0 1.7 0.00 0.00 0.00 31 1016.4
20260906014542 75 194 0.0 1.7 0.00 0.00 0.00 29 1016.4
20260906014019 76 194 0.9 2.6 0.00 0.00 0.00 27 1016.4
20260906013518 76 221 1.7 3.5 0.00 0.00 0.00 26 1016.4
20260906013034 76 253 1.7 6.1 0.00 0.00 0.00 26 1016.5
20260906012522 76 242 2.6 6.1 0.00 0.00 0.00 26 1016.4
20260906012019 77 236 2.6 6.1 0.00 0.00 0.00 26 1016.5
20260906011549 77 265 3.5 6.1 0.00 0.00 0.00 26 1016.5
20260906011018 78 240 2.6 7.0 0.00 0.00 0.00 25 1016.5
20260906010516 78 258 3.5 7.0 0.00 0.00 0.00 26 1016.5
20260906010027 78 222 3.5 6.1 0.00 0.00 0.00 26 1016.4
20260906005517 78 255 2.6 8.7 0.00 0.00 0.00 26 1016.4
20260906005017 78 265 5.2 8.7 0.00 0.00 0.00 26 1016.4
20260906004528 79 234 4.3 6.1 0.00 0.00 0.00 28 1016.4
20260906004015 79 311 2.6 5.2 0.00 0.00 0.00 26 1016.3
20260906003515 80 280 1.7 5.2 0.00 0.00 0.00 26 1016.3
20260906003033 79 259 2.6 7.8 0.00 0.00 0.00 26 1016.3
20260906002517 79 288 3.5 8.7 0.00 0.00 0.00 26 1016.2
20260906002016 79 248 4.3 8.7 0.00 0.00 0.00 26 1016.3
20260906001535 80 247 6.1 9.6 0.00 0.00 0.00 26 1016.3
20260906001018 80 244 2.6 9.6 0.00 0.00 0.00 26 1016.3
20260906000516 80 259 4.3 9.6 0.00 0.00 0.00 27 1016.3
20260906000039 80 257 4.3 8.7 0.00 0.00 0.00 27 1016.3
20260905235522 81 252 5.2 8.7 0.00 0.00 0.00 26 1016.4
20260905235014 81 268 3.5 8.7 0.00 0.00 0.00 25 1016.3
20260905234529 81 255 4.3 8.7 0.00 0.00 0.00 26 1016.3
20260905234012 81 248 3.5 7.8 0.00 0.00 0.00 27 1016.3
20260905233517 81 260 2.6 9.6 0.00 0.00 0.00 27 1016.3
20260905233033 81 257 5.2 9.6 0.00 0.00 0.00 27 1016.2